Regional Weather Roundup
Issued by NWS Boston, MA

Current Version | Previous Version | Text Only | Print | Product List | Glossary On
Versions: 1 2 3 4 5 6 7 8 9 10 11 12 13 14 15 16 17 18 19 20 21 22 23 24 25 26 27 28
000 ASUS41 KBOX 220910 RWRBOX REGIONAL WEATHER ROUNDUP NATIONAL WEATHER SERVICE BOSTON/NORTON MA 500 AM EDT SUN APR 22 2018 NOTE: "FAIR" INDICATES FEW OR NO CLOUDS BELOW 12,000 FEET WITH NO SIGNIFICANT WEATHER AND/OR OBSTRUCTIONS TO VISIBILITY. MAZALL-221000- EASTERN MASSACHUSETTS CITY SKY/WX TMP DP RH WIND PRES REMARKS BOSTON FAIR 43 21 41 W9 30.32S BEVERLY FAIR 37 22 54 W5 30.30F LAWRENCE FAIR 37 23 56 SW3 30.33S BEDFORD FAIR 31 26 82 W3 30.31F BLUE HILL N/A 37 20 50 NW12 30.29S WCI 29 NORWOOD FAIR 34 30 85 CALM 30.33S MARSHFIELD FAIR 32 28 86 W5 30.31S WCI 27 PLYMOUTH FAIR 32 28 85 CALM 30.31F TAUNTON MOCLDY 28 26 92 CALM 30.32 FOG NEW BEDFORD FAIR 31 28 89 CALM 30.31S $$ MAZALL-221000- CAPE COD AND THE ISLANDS CITY SKY/WX TMP DP RH WIND PRES REMARKS FALMOUTH N/A 30 27 86 NW5 30.31 WCI 25 HYANNIS FAIR 34 31 88 N3 30.29S CHATHAM FAIR 37 34 89 NW5 30.30F PROVINCETOWN FAIR 41 35 79 W7 30.31S NANTUCKET FAIR 40 36 86 N8 30.30S MARTHAS VNYRD FAIR 30 28 92 NW6 30.31S WCI 24 $$ MAZALL-221000- CENTRAL AND WESTERN MASSACHUSETTS CITY SKY/WX TMP DP RH WIND PRES REMARKS WORCESTER FAIR 36 16 44 W8 30.31F WCI 30 FITCHBURG FAIR 34 26 72 N3 30.33F ORANGE FAIR 24 22 91 CALM 30.35S SPRINGFIELD FAIR 28 23 84 CALM 30.34S WESTFIELD FAIR 31 26 82 CALM 30.35S NORTH ADAMS FAIR 25 21 85 CALM 30.37S PITTSFIELD FAIR 29 20 69 CALM 30.33S $$ RIZALL-221000- RHODE ISLAND CITY SKY/WX TMP DP RH WIND PRES REMARKS PROVIDENCE FAIR 36 26 67 W3 30.34R NEWPORT FAIR 37 26 64 CALM 30.32S BLOCK ISLAND FAIR 41 29 62 N5 30.34 SMITHFIELD FAIR 37 17 44 MISG 30.32S WESTERLY FAIR 35 26 69 CALM 30.35R $$ CTZALL-221000- CONNECTICUT CITY SKY/WX TMP DP RH WIND PRES REMARKS BRADLEY INTL FAIR 40 21 46 CALM 30.35S HARTFORD FAIR 36 29 75 CALM 30.36S BRIDGEPORT FAIR 44 19 36 W5 30.37R DANBURY FAIR 31 23 72 CALM 30.37F GROTON FAIR 37 24 59 CALM 30.34R NEW HAVEN FAIR 41 21 44 N5 30.36S CHESTER FAIR 41 19 42 NW6 30.34S MERIDEN FAIR 35 24 64 CALM 30.36S WILLIMANTIC FAIR 32 25 75 CALM 30.35S OXFORD FAIR 40 19 43 NW8 30.35S $$ MEZ002-015-021-024-NHZ003-005-008-011-012-014-VTZ005-008-221000- NORTHERN NEW ENGLAND CITY SKY/WX TMP DP RH WIND PRES REMARKS PORTLAND ME FAIR 34 24 67 W6 30.29S WCI 29 BANGOR ME FAIR 29 22 75 CALM 30.24S CONCORD NH FAIR 26 21 81 CALM 30.32S MANCHESTER NH FAIR 34 23 64 CALM 30.31S NASHUA NH FAIR 30 25 81 CALM 30.33S PORTSMOUTH NH CLEAR 35 24 62 NW5 30.29S WCI 31 JAFFREY NH FAIR 27 24 89 CALM 30.31S KEENE NH FAIR 23 21 92 CALM 30.35S BURLINGTON VT FAIR 30 24 78 CALM 30.36R MT. WASHINGTON PTCLDY 14 10 85 NW47 N/A WCI -11 $$ NYZ052-076-221000- EASTERN NEW YORK CITY SKY/WX TMP DP RH WIND PRES REMARKS ALBANY FAIR 31 19 61 CALM 30.37S NEW YORK CITY FAIR 48 23 37 NW8 30.37F $$ ANZALL-221000- MARINE OBSERVATIONS STATION/POSITION TIME TEMP WIND PRES VSBY WAVE AIR SEA DIR/SP/G HT/PER (UTC) (F) (DEG/KT/KT) (MB) (MI) (FT/S) BOSTON BUOY 0850 44 43 270/ 8/ 10 1025.1F 1 BUZZARDS BAY 0800 44 350/ 10/ 10 1027.3R NANTUCKET SOUND 0750 44 43 340/ 8/ 10 1026.0 1 MASS BAY-STELLWA 0804 41 42 1024.7S 1/11 ISLE OF SHOALS 0900 41 290/ 13/ 14 1025.4F S OF BLOCK IS 0843 42 N/A 2/ 5 $$ ......................KEY......................... SKY/WX - SKY CONDITION/PRESENT WEATHER TMP - TEMPERATURE IN FAHRENHEIT DWPT - DEWPOINT IN FAHRENHEIT RH - RELATIVE HUMIDITY IN PERCENT WIND - DIRECTION AND SPEED IN MPH PRES - MEAN SEA LEVEL PRESSURE IN INCHES OF HG WCI - WIND CHILL INDEX VSB - VISIBILITY IN MILES HX - HEAT INDEX TC - TEMPERATURE IN CELSIUS VRB - VARIABLE WIND DIRECTION N/A - NOT AVAILABLE

USA.gov is the U.S. government's official web portal to all federal, state and local government web resources and services.